Alexander City, AL

8:15 AM CST on December 11, 2019 (GMT -0600)
Russell

Weather History for KALX - October, 2019

Change the Weather History Date:

Sunday, October 6, 2019

  Actual Average (KAUO) Record (KAUO)
Temperature  
Mean Temperature 74 °F -  
Max Temperature 82 °F 79 °F 89 °F (1959)
Min Temperature 65 °F 52 °F 37 °F (1974)
Cooling Degree Days 8    
Growing Degree Days 24 (Base 50)    
Moisture  
Dew Point 66 °F    
Average Humidity 77    
Maximum Humidity 94    
Minimum Humidity 58    
Precipitation  
Precipitation 0.00 in - - ()
Sea Level Pressure  
Sea Level Pressure 30.13 in    
Wind  
Wind Speed 4 mph (ENE)    
Max Wind Speed 10 mph    
Max Gust Speed -    
Visibility 10 miles    
Events      
Averages and records for this station are not official NWS values.
T = Trace of Precipitation, MM = Missing Value Source: NWS Daily Summary

Daily Weather History Graph

Daily Weather History Graph

Search for Another Location

Airport or City:

Astronomy

Oct. 06, 2019 Rise Set
Actual Time 6:41 AM CDT 6:22 PM CDT
Civil Twilight 6:16 AM CDT 6:46 PM CDT
Nautical Twilight 5:48 AM CDT 7:15 PM CDT
Astronomical Twilight 5:19 AM CDT 7:44 PM CDT
Moon 2:37 PM CDT (10/6) 12:02 AM CDT (10/6)
Length of Visible Light 12h 30m
Length of Day
11h 40m
First Quarter, 60% of the Moon is Illuminated
Oct 6
First Quarter
Oct 13
Full
Oct 21
Last Quarter
Oct 27
New
Nov 4
First Quarter

Hourly Weather History & Observations

Time (CDT) Temp. Heat Index Dew Point Humidity Pressure Visibility Wind Dir Wind Speed Gust Speed Precip Events Conditions
12:15 AM 69.8 °F - 66.2 °F 88% 30.11 in 10.0 mi NE 4.6 mph - N/A   Clear
12:35 AM 69.3 °F - 66.2 °F 90% 30.11 in 10.0 mi ENE 3.5 mph - N/A   Clear
12:55 AM 69.1 °F - 66.2 °F 91% 30.11 in 10.0 mi NE 4.6 mph - N/A   Clear
1:15 AM 68.9 °F - 65.8 °F 90% 30.11 in 10.0 mi ENE 3.5 mph - N/A   Mostly Cloudy
1:35 AM 68.7 °F - 65.7 °F 90% 30.12 in 10.0 mi ENE 3.5 mph - N/A   Mostly Cloudy
1:55 AM 68.4 °F - 65.5 °F 90% 30.12 in 10.0 mi NE 3.5 mph - N/A   Mostly Cloudy
2:15 AM 68.2 °F - 65.3 °F 90% 30.12 in 10.0 mi NE 3.5 mph - N/A   Mostly Cloudy
2:35 AM 68.0 °F - 65.3 °F 91% 30.12 in 10.0 mi Calm Calm - N/A   Mostly Cloudy
2:55 AM 68.0 °F - 65.3 °F 91% 30.12 in 10.0 mi Calm Calm - N/A   Overcast
3:15 AM 68.0 °F - 65.3 °F 91% 30.12 in 10.0 mi Calm Calm - N/A   Overcast
3:35 AM 68.0 °F - 64.9 °F 90% 30.12 in 10.0 mi Calm Calm - N/A   Mostly Cloudy
3:55 AM 67.5 °F - 64.9 °F 92% 30.12 in 10.0 mi Calm Calm - N/A   Scattered Clouds
4:15 AM 67.6 °F - 64.8 °F 90% 30.12 in 10.0 mi ENE 3.5 mph - N/A   Mostly Cloudy
4:35 AM 67.5 °F - 64.6 °F 90% 30.13 in 10.0 mi NNE 5.8 mph - N/A   Mostly Cloudy
4:55 AM 67.3 °F - 64.4 °F 90% 30.13 in 10.0 mi NE 3.5 mph - N/A   Mostly Cloudy
5:15 AM 67.1 °F - 64.4 °F 91% 30.14 in 10.0 mi Calm Calm - N/A   Mostly Cloudy
5:35 AM 66.4 °F - 64.4 °F 93% 30.14 in 10.0 mi ENE 3.5 mph - N/A   Scattered Clouds
5:55 AM 66.2 °F - 64.0 °F 93% 30.14 in 10.0 mi Calm Calm - N/A   Scattered Clouds
6:15 AM 65.8 °F - 64.0 °F 94% 30.14 in 10.0 mi Calm Calm - N/A   Mostly Cloudy
6:35 AM 65.7 °F - 63.9 °F 94% 30.15 in 10.0 mi ENE 3.5 mph - N/A   Overcast
6:55 AM 65.5 °F - 63.9 °F 94% 30.15 in 10.0 mi NE 3.5 mph - N/A   Mostly Cloudy
7:15 AM 65.8 °F - 63.9 °F 93% 30.16 in 10.0 mi ENE 3.5 mph - N/A   Mostly Cloudy
7:35 AM 66.4 °F - 64.0 °F 92% 30.16 in 10.0 mi NE 3.5 mph - N/A   Overcast
7:55 AM 66.6 °F - 63.9 °F 91% 30.16 in 10.0 mi ENE 3.5 mph - N/A   Overcast
8:15 AM 67.6 °F - 64.0 °F 88% 30.17 in 10.0 mi ENE 3.5 mph - N/A   Overcast
8:35 AM 68.0 °F - 64.0 °F 87% 30.17 in 10.0 mi East 5.8 mph - N/A   Overcast
8:55 AM 70.5 °F - 64.6 °F 81% 30.18 in 10.0 mi East 5.8 mph - N/A   Mostly Cloudy
9:15 AM 71.1 °F - 64.6 °F 80% 30.18 in 10.0 mi East 4.6 mph - N/A   Mostly Cloudy
9:35 AM 72.0 °F - 64.8 °F 78% 30.19 in 10.0 mi East 5.8 mph - N/A   Mostly Cloudy
9:55 AM 72.7 °F - 65.1 °F 77% 30.19 in 10.0 mi East 6.9 mph - N/A   Scattered Clouds
10:15 AM 74.5 °F - 65.3 °F 73% 30.19 in 10.0 mi East 6.9 mph - N/A   Scattered Clouds
10:35 AM 75.2 °F - 65.3 °F 71% 30.19 in 10.0 mi East 5.8 mph - N/A   Scattered Clouds
10:55 AM 75.9 °F - 65.3 °F 70% 30.18 in 10.0 mi East 6.9 mph - N/A   Scattered Clouds
11:15 AM 77.0 °F - 65.3 °F 67% 30.18 in 10.0 mi East 8.1 mph - N/A   Clear
11:35 AM 78.1 °F - 65.1 °F 64% 30.18 in 10.0 mi ESE 10.4 mph - N/A   Clear
11:55 AM 80.6 °F 82.5 °F 65.5 °F 60% 30.17 in 10.0 mi East 9.2 mph - N/A   Clear
12:15 PM 79.9 °F - 64.9 °F 60% 30.16 in 10.0 mi ESE 5.8 mph - N/A   Scattered Clouds
12:35 PM 80.4 °F 82.2 °F 64.9 °F 59% 30.16 in 10.0 mi SE 6.9 mph - N/A   Scattered Clouds
12:55 PM 81.0 °F 82.7 °F 64.9 °F 58% 30.14 in 10.0 mi SE 3.5 mph - N/A   Scattered Clouds
1:15 PM 81.1 °F 83.1 °F 65.7 °F 59% 30.13 in 10.0 mi East 5.8 mph - N/A   Scattered Clouds
1:35 PM 81.7 °F 83.6 °F 65.5 °F 58% 30.13 in 10.0 mi East 6.9 mph - N/A   Scattered Clouds
1:55 PM 80.8 °F 82.6 °F 65.1 °F 59% 30.12 in 10.0 mi ENE 4.6 mph - N/A   Mostly Cloudy
2:15 PM 80.8 °F 82.6 °F 65.3 °F 59% 30.12 in 10.0 mi ENE 4.6 mph - N/A   Mostly Cloudy
2:35 PM 80.2 °F 82.2 °F 65.5 °F 61% 30.12 in 10.0 mi Calm Calm - N/A   Overcast
2:55 PM 81.0 °F 83.0 °F 65.7 °F 60% 30.11 in 10.0 mi NE 5.8 mph - N/A   Scattered Clouds
3:15 PM 81.3 °F 83.3 °F 65.8 °F 59% 30.11 in 10.0 mi East 6.9 mph - N/A   Scattered Clouds
3:35 PM 82.4 °F 84.6 °F 66.2 °F 58% 30.10 in 10.0 mi East 8.1 mph - N/A   Scattered Clouds
3:55 PM 81.1 °F 83.2 °F 66.2 °F 60% 30.11 in 10.0 mi ENE 4.6 mph - N/A   Scattered Clouds
4:15 PM 80.6 °F 82.7 °F 66.2 °F 61% 30.10 in 10.0 mi Calm Calm - N/A   Clear
4:35 PM 80.8 °F 82.9 °F 66.4 °F 61% 30.09 in 10.0 mi NE 5.8 mph - N/A   Scattered Clouds
4:55 PM 79.9 °F - 66.6 °F 64% 30.09 in 10.0 mi ENE 5.8 mph - N/A   Scattered Clouds
5:15 PM 79.7 °F - 66.7 °F 64% 30.09 in 10.0 mi ENE 4.6 mph - N/A   Scattered Clouds
5:35 PM 79.2 °F - 67.1 °F 66% 30.09 in 10.0 mi ENE 6.9 mph - N/A   Clear
5:55 PM 78.8 °F - 67.5 °F 68% 30.09 in 10.0 mi ENE 3.5 mph - N/A   Clear
6:15 PM 77.9 °F - 67.3 °F 70% 30.09 in 10.0 mi ENE 4.6 mph - N/A   Clear
6:35 PM 77.2 °F - 67.1 °F 71% 30.09 in 10.0 mi ENE 4.6 mph - N/A   Clear
6:55 PM 76.8 °F - 66.9 °F 71% 30.09 in 10.0 mi NE 3.5 mph - N/A   Clear
7:15 PM 76.1 °F - 67.1 °F 74% 30.09 in 10.0 mi East 3.5 mph - N/A   Clear
7:35 PM 75.9 °F - 67.1 °F 74% 30.09 in 10.0 mi ENE 3.5 mph - N/A   Clear
7:55 PM 75.2 °F - 67.1 °F 76% 30.10 in 10.0 mi ENE 3.5 mph - N/A   Clear
8:15 PM 75.0 °F - 66.7 °F 75% 30.10 in 10.0 mi ENE 4.6 mph - N/A   Clear
8:35 PM 74.5 °F - 66.7 °F 77% 30.11 in 10.0 mi East 4.6 mph - N/A   Clear
8:55 PM 74.3 °F - 66.7 °F 77% 30.11 in 10.0 mi ENE 3.5 mph - N/A   Clear
9:15 PM 74.3 °F - 66.6 °F 77% 30.10 in 10.0 mi ENE 5.8 mph - N/A   Clear
9:35 PM 74.3 °F - 66.4 °F 76% 30.10 in 10.0 mi ENE 4.6 mph - N/A   Clear
9:55 PM 74.3 °F - 66.4 °F 76% 30.11 in 10.0 mi ENE 5.8 mph - N/A   Clear
10:15 PM 73.8 °F - 66.4 °F 78% 30.10 in 10.0 mi East 5.8 mph - N/A   Scattered Clouds
10:35 PM 73.4 °F - 66.2 °F 78% 30.11 in 10.0 mi East 4.6 mph - N/A   Clear
10:55 PM 73.2 °F - 66.2 °F 79% 30.11 in 10.0 mi East 3.5 mph - N/A   Clear
11:15 PM 73.0 °F - 66.0 °F 79% 30.11 in 10.0 mi Calm Calm - N/A   Clear
11:35 PM 72.7 °F - 66.2 °F 80% 30.11 in 10.0 mi ESE 3.5 mph - N/A   Clear
11:55 PM 72.5 °F - 65.5 °F 79% 30.11 in 10.0 mi Calm Calm - N/A   Clear